Espace membre
Imprimable
Wissant, 07-08/09/2019, FRA - Trail de la Côte d'Opale
Liste des rapports > 24km Challenge - Classement
Recherche: Page: [1]
38 Entrées
 
Les réclamations ne sont plus acceptées, les résultats sont considérés comme définitifs.
RangNrLicenceNomAgeIOCEquipeTempsTkmMoy.ScrLocalité
1.12123DENEFFE Guillaume36BELENTREPARENTHESES1:37:434:05 14.741HOUYET
2.12047LALART Jean-Baptiste32FRA1:41:194:14 14.212
3.12090LOEUILLIEUX Pierre31FRA1:45:484:25 13.615
4.120961793541TREMELET Henry31FRAUS SAINTES ATHLÉTISME1:48:454:32 13.246
5.12088T308490GOBAILLE Thomas37FRARUNNING TRAIL THIERACHE1:50:034:36 13.087
6.12137PASTEELS Johan34BELRUN&FLY1:54:594:48 12.5211
7.12105DE WULF Alexander38BELSEROTO.BE1:56:284:52 12.3714
8.12071PAPE Gerald39FRA1:58:254:57 12.1617
9.120251958561CHAMPION Sebastien31FRASO HOUILLES1:59:445:00 12.0319
10.12030DOBBELS Morgan28FRATEAM GRAVELINES TRAIL2:00:555:03 11.9121
11.12134BRICHE Jeremy33FRALES COUREURS DU LOUP BLAN2:02:045:06 11.8022
12.12136DAUTRICOURT Rémi37FRAMALAKOFF MÉDÉRIC HUMANIS2:02:095:06 11.7923
13.12062DANDRE Rémi34FRALHS2:02:455:07 11.7326
14.12138LEMAIRE Vincent32FRA2:03:495:10 11.6328
15.12022LETURCQ Fabien39BELROUCOURT2:05:595:15 11.4333
16.12108D’AMORE Laurent37FRA2:06:305:17 11.3836
17.12128CRÉPIN François34FRA2:08:265:22 11.2139
18.12048GENDERA Sebastien32FRAWASQEHAL TRIATHLON2:09:095:23 11.1541
19.12101HERBIN Aurélien32FRA2:12:595:33 10.8346
20.12035DAUCHELLE Nicolas33FRA2:13:105:33 10.8149
21.12091BRICHE Cédric36FRA2:17:135:44 10.4957
22.12013COUVREUR Charles22FRA2:19:115:48 10.3559
23.12003AGEZ Julian30FRA2:19:145:49 10.3460
24.12114DEWEZ Julien26FRA2:19:305:49 10.3263
25.12052BLERVAQUE Sebastien38FRA2:23:215:59 10.0566
26.12064DESAUW Florent35FRA2:23:265:59 10.0467
27.12032DILLIES Edouard37FRA2:25:046:03 9.9370
28.12007FAZIO Anthony33FRA2:25:376:05 9.8971
29.12017HARY Florian25FRA2:26:546:08 9.8075
30.12100BRUSSON Pierre32FRA2:27:116:08 9.7876
31.12125FEBVIN Benjamin30FRA2:32:416:22 9.4383
32.12065DE COSTER Guillaume33FRA2:34:456:27 9.3187
33.12037SCHYNS Thomas39BELLOVE RUNNING LIEGE2:35:026:28 9.2989
34.12104BERNARD Benoit37FRA2:41:106:43 8.94103
35.12054HOUDIN Eric39FRA2:43:436:50 8.80108
36.12132VERSCHUEREN Jonathan31FRACE BOMBARDIER2:48:487:02 8.53115
37.12067GROSSET Philippe39FRA2:55:547:20 8.19117
38.12061LORTHIOIR Rémi39FRA3:05:417:45 7.76121
DNF: abandon; DSQ: disqualifié; Vitesse en km/h
Page: [1]